M0TUM-1 Weather Reports


Display with metric or nautical units.
time (UTC)temp
F
wind
direction
speed
MPH
gust
MPH
rain 1hr
in
rain 24hr
in
rain mn
in
humidity
%
barometer
mb
20260507104855 53 164 2.0 2.0 0.00 0.00 0.00 66 1017.3
20260507104351 53 214 0.0 0.0 0.00 0.00 0.00 66 1017.4
20260507103847 53 193 0.0 1.0 0.00 0.00 0.00 67 1017.3
20260507103343 53 82 2.0 3.0 0.00 0.00 0.00 67 1017.4
20260507100329 52 176 2.0 2.0 0.00 0.00 0.00 67 1017.3
20260507095827 52 176 2.0 2.0 0.00 0.00 0.00 67 1017.3
20260507095323 52 176 2.0 2.0 0.00 0.00 0.00 67 1017.3
20260507094821 53 266 0.0 0.0 0.00 0.00 0.00 66 1017.3
20260507094317 53 1 0.0 0.0 0.00 0.00 0.00 65 1017.1
20260507093814 53 166 1.0 1.0 0.00 0.00 0.00 64 1017.1
20260507093312 53 120 1.0 2.0 0.00 0.00 0.00 64 1017.0
20260507092810 53 49 3.0 5.0 0.00 0.00 0.00 64 1017.2
20260507092307 53 156 2.0 2.0 0.00 0.00 0.00 63 1017.1
20260507091803 52 222 0.0 1.0 0.00 0.00 0.00 64 1017.1
20260507091259 52 148 2.0 3.0 0.00 0.00 0.00 64 1017.2
20260507090759 52 133 4.0 5.0 0.00 0.00 0.00 64 1017.2
20260507090256 52 167 0.0 0.0 0.00 0.00 0.00 64 1017.0
20260507085754 53 164 1.0 1.0 0.00 0.00 0.00 64 1017.2
20260507085250 52 195 0.0 0.0 0.00 0.00 0.00 64 1017.2
20260507084748 52 195 1.0 1.0 0.00 0.00 0.00 66 1017.1
20260507084244 52 86 1.0 1.0 0.00 0.00 0.00 65 1017.0
20260507083741 52 217 0.0 1.0 0.00 0.00 0.00 65 1017.1
20260507083238 51 87 1.0 1.0 0.00 0.00 0.00 65 1017.1
20260507082734 52 174 2.0 2.0 0.00 0.00 0.00 66 1017.1
20260507082230 52 187 0.0 0.0 0.00 0.00 0.00 66 1017.0
20260507081727 52 185 2.0 2.0 0.00 0.00 0.00 67 1016.9
20260507081223 51 241 1.0 2.0 0.00 0.00 0.00 68 1016.8
20260507080720 51 132 2.0 2.0 0.00 0.00 0.00 70 1016.8
20260507080216 51 134 2.0 2.0 0.00 0.00 0.00 69 1017.0
20260507075711 51 187 0.0 1.0 0.00 0.00 0.00 70 1016.7
20260507075208 50 175 0.0 1.0 0.00 0.00 0.00 71 1016.8
20260507074704 50 171 0.0 0.0 0.00 0.00 0.00 73 1016.7
20260507074203 49 181 1.0 1.0 0.00 0.00 0.00 74 1016.8
20260507073659 49 143 2.0 2.0 0.00 0.00 0.00 74 1016.8
20260507073155 49 186 0.0 0.0 0.00 0.00 0.00 75 1016.5
20260507072653 49 82 1.0 2.0 0.00 0.00 0.00 75 1016.6
20260507072150 49 139 0.0 1.0 0.00 0.00 0.00 74 1016.5
20260507071648 49 168 0.0 1.0 0.00 0.00 0.00 74 1016.6
20260507071144 49 65 1.0 1.0 0.00 0.00 0.00 75 1016.5
20260507070641 48 148 0.0 1.0 0.00 0.00 0.00 75 1016.5
20260507070138 48 174 0.0 0.0 0.00 0.00 0.00 75 1016.8
20260507065634 48 184 0.0 0.0 0.00 0.00 0.00 75 1016.6
20260507065131 48 201 1.0 1.0 0.00 0.00 0.00 75 1016.4
20260507064629 49 129 1.0 2.0 0.00 0.00 0.00 75 1016.6
20260507064127 49 160 0.0 0.0 0.00 0.00 0.00 76 1016.7
20260507063624 49 154 0.0 0.0 0.00 0.00 0.00 76 1016.6
20260507063121 48 196 0.0 0.0 0.00 0.00 0.00 76 1016.3
20260507062618 48 197 0.0 0.0 0.00 0.00 0.00 76 1016.5
20260507062116 48 204 0.0 0.0 0.00 0.00 0.00 77 1016.3
20260507061613 48 209 0.0 0.0 0.00 0.00 0.00 77 1016.5
20260507061111 48 171 1.0 1.0 0.00 0.00 0.00 77 1016.6
20260507060609 48 182 0.0 0.0 0.00 0.00 0.00 77 1016.3
20260507060105 48 84 1.0 1.0 0.00 0.00 0.00 79 1016.3
20260507055600 48 125 1.0 1.0 0.00 0.00 0.00 80 1016.2
20260507055057 47 196 0.0 0.0 0.00 0.00 0.00 81 1016.2
20260507054553 47 166 1.0 2.0 0.00 0.00 0.00 82 1016.0
20260507054050 46 189 0.0 0.0 0.00 0.00 0.00 83 1016.2
20260507053548 46 196 0.0 0.0 0.00 0.00 0.00 83 1016.1
20260507053046 46 160 1.0 1.0 0.00 0.00 0.00 84 1016.0
20260507052544 46 197 0.0 0.0 0.00 0.00 0.00 84 1016.2
20260507052040 46 192 0.0 0.0 0.00 0.00 0.00 84 1016.2
20260507051538 46 203 0.0 0.0 0.00 0.00 0.00 84 1016.0
20260507051035 46 186 0.0 0.0 0.00 0.00 0.00 85 1016.1
20260507050531 46 211 0.0 0.0 0.00 0.00 0.00 85 1016.1
20260507050028 46 209 0.0 0.0 0.00 0.00 0.00 85 1015.9
20260507045524 46 213 0.0 0.0 0.00 0.00 0.00 85 1015.9
20260507045022 46 208 0.0 0.0 0.00 0.00 0.00 85 1016.0
20260507044518 46 251 0.0 0.0 0.00 0.00 0.00 85 1015.8
20260507044015 45 270 0.0 1.0 0.00 0.00 0.00 85 1015.8
20260507043511 45 308 1.0 1.0 0.00 0.00 0.00 85 1015.7
20260507043008 45 213 0.0 0.0 0.00 0.00 0.00 86 1016.1
20260507042504 46 207 0.0 0.0 0.00 0.00 0.00 86 1016.0
20260507042000 46 214 0.0 0.0 0.00 0.00 0.00 86 1015.7
20260507041457 46 221 0.0 0.0 0.00 0.00 0.00 85 1015.9
20260507040954 46 214 0.0 0.0 0.00 0.00 0.00 85 1015.8
20260507040450 46 223 0.0 0.0 0.00 0.00 0.00 85 1015.8
20260507035945 46 228 0.0 0.0 0.00 0.00 0.00 85 1015.7
20260507035442 46 244 1.0 1.0 0.00 0.00 0.00 85 1015.5
20260507034939 45 225 0.0 1.0 0.00 0.00 0.00 85 1015.6
20260507034436 45 219 0.0 0.0 0.00 0.00 0.00 85 1015.4
20260507033934 45 224 0.0 0.0 0.00 0.00 0.00 85 1015.5
20260507033432 45 216 0.0 0.0 0.00 0.00 0.00 85 1015.5
20260507032928 45 204 0.0 0.0 0.00 0.00 0.00 84 1015.5
20260507032426 45 204 0.0 0.0 0.00 0.00 0.00 84 1015.6
20260507031921 45 204 0.0 0.0 0.00 0.00 0.00 84 1015.3
20260507031418 45 204 0.0 0.0 0.00 0.00 0.00 84 1015.5
20260507030915 45 204 0.0 0.0 0.00 0.00 0.00 84 1015.5
20260507030412 45 208 0.0 0.0 0.00 0.00 0.00 84 1015.5
20260507025909 46 208 0.0 0.0 0.00 0.00 0.00 84 1015.2
20260507025407 46 206 0.0 0.0 0.00 0.00 0.00 84 1015.6
20260507024904 46 196 0.0 0.0 0.00 0.00 0.00 83 1015.4
20260507024401 46 193 0.0 0.0 0.00 0.00 0.00 83 1015.4
20260507023857 46 196 0.0 0.0 0.00 0.00 0.00 83 1015.5
20260507023354 46 201 0.0 0.0 0.00 0.00 0.00 83 1015.6
20260507022851 46 207 0.0 0.0 0.00 0.00 0.00 83 1015.4
20260507022348 46 205 0.0 0.0 0.00 0.00 0.00 83 1015.4
20260507021844 46 210 0.0 0.0 0.00 0.00 0.00 82 1015.5
20260507021339 46 212 0.0 0.0 0.00 0.00 0.00 82 1015.6
20260507020838 46 202 0.0 0.0 0.00 0.00 0.00 82 1015.5
20260507020334 46 213 0.0 0.0 0.00 0.00 0.00 82 1015.7
20260507015831 46 217 0.0 0.0 0.00 0.00 0.00 82 1015.4
20260507015329 46 206 0.0 0.0 0.00 0.00 0.00 82 1015.4
20260507014826 46 197 0.0 0.0 0.00 0.00 0.00 82 1015.5
20260507014322 46 204 0.0 0.0 0.00 0.00 0.00 82 1015.4
20260507013818 46 253 1.0 1.0 0.00 0.00 0.00 82 1015.5
20260507013315 46 237 0.0 1.0 0.00 0.00 0.00 82 1015.2
20260507012813 46 210 0.0 0.0 0.00 0.00 0.00 82 1015.4
20260507012309 46 214 0.0 0.0 0.00 0.00 0.00 82 1015.4
20260507011806 46 248 0.0 1.0 0.00 0.00 0.00 82 1015.4
20260507011303 46 261 0.0 0.0 0.00 0.00 0.00 83 1015.5
20260507010802 46 272 1.0 1.0 0.00 0.00 0.00 83 1015.6
20260507010258 47 353 1.0 1.0 0.00 0.00 0.00 83 1015.3
20260507005756 47 211 0.0 0.0 0.00 0.00 0.00 83 1015.4
20260507005252 47 202 0.0 0.0 0.00 0.00 0.00 83 1015.3
20260507004749 47 170 0.0 0.0 0.00 0.00 0.00 83 1015.4
20260507004247 47 181 0.0 1.0 0.00 0.00 0.00 83 1015.2
20260507003743 47 284 1.0 1.0 0.00 0.00 0.00 83 1015.3
20260507003238 47 216 0.0 0.0 0.00 0.00 0.00 83 1015.3
20260507002734 47 228 0.0 0.0 0.00 0.00 0.00 82 1015.4
20260507002230 47 205 0.0 0.0 0.00 0.00 0.00 82 1015.4
20260507001727 47 216 0.0 0.0 0.00 0.00 0.00 82 1015.5
20260507001225 47 202 0.0 0.0 0.00 0.00 0.00 82 1015.4
20260507000721 47 215 0.0 1.0 0.00 0.00 0.00 82 1015.5
20260507000216 47 230 0.0 0.0 0.00 0.00 0.00 82 1015.5
20260506235714 47 206 0.0 0.0 0.00 0.00 0.00 82 1015.5
20260506235209 47 211 1.0 1.0 0.00 0.00 0.00 82 1015.3
20260506234706 47 340 0.0 1.0 0.00 0.00 0.00 82 1015.5
20260506234204 47 242 0.0 0.0 0.00 0.00 0.00 82 1015.6
20260506233701 47 245 1.0 1.0 0.00 0.00 0.00 82 1015.5
20260506233157 47 9 2.0 2.0 0.00 0.00 0.00 81 1015.5
20260506232654 47 25 0.0 0.0 0.00 0.00 0.00 81 1015.4
20260506232149 47 356 0.0 2.0 0.00 0.00 0.00 81 1015.3
20260506231646 47 243 1.0 1.0 0.00 0.00 0.00 81 1015.6
20260506231145 47 313 1.0 1.0 0.00 0.00 0.00 81 1015.4
20260506230641 47 218 0.0 0.0 0.00 0.00 0.00 81 1015.4
20260506230138 47 191 0.0 0.0 0.00 0.00 0.00 81 1015.5
20260506225634 47 248 1.0 1.0 0.00 0.18 0.18 81 1015.3
20260506225131 47 208 0.0 1.0 0.00 0.18 0.18 81 1015.5
20260506224628 47 23 2.0 3.0 0.00 0.18 0.18 81 1015.4
20260506224124 47 205 0.0 0.0 0.00 0.18 0.18 81 1015.5
20260506223621 47 27 2.0 2.0 0.00 0.18 0.18 81 1015.4
20260506223117 47 79 1.0 2.0 0.00 0.18 0.18 81 1015.5
20260506222614 47 16 3.0 3.0 0.00 0.18 0.18 81 1015.5
20260506222110 47 41 2.0 2.0 0.00 0.18 0.18 81 1015.5
20260506221608 47 15 2.0 2.0 0.00 0.18 0.18 81 1015.3
20260506221106 47 121 2.0 3.0 0.00 0.18 0.18 81 1015.3
20260506220602 47 183 0.0 0.0 0.00 0.18 0.18 81 1015.3
20260506220057 47 271 0.0 1.0 0.00 0.18 0.18 81 1015.4
20260506215554 47 7 2.0 2.0 0.00 0.18 0.18 81 1015.2
20260506215050 47 171 0.0 1.0 0.00 0.18 0.18 81 1015.3
20260506214547 47 301 0.0 1.0 0.00 0.18 0.18 81 1015.2
20260506214044 47 2 2.0 2.0 0.00 0.18 0.18 80 1015.1
20260506213543 47 171 0.0 1.0 0.00 0.18 0.18 80 1014.9
20260506213040 47 208 0.0 0.0 0.00 0.18 0.18 80 1014.9
20260506212536 47 279 0.0 1.0 0.00 0.18 0.18 80 1015.0
20260506212031 48 183 1.0 2.0 0.00 0.18 0.18 80 1014.8
20260506211527 48 188 0.0 0.0 0.00 0.18 0.18 80 1015.0
20260506211024 48 212 0.0 1.0 0.00 0.18 0.18 80 1015.1
20260506210521 48 257 0.0 0.0 0.00 0.18 0.18 80 1014.9
20260506210017 48 186 0.0 0.0 0.00 0.18 0.18 80 1014.8
20260506205514 48 230 0.0 1.0 0.00 0.18 0.18 80 1015.1
20260506205009 48 179 0.0 1.0 0.00 0.18 0.18 80 1015.0
20260506204508 48 55 2.0 2.0 0.00 0.18 0.18 80 1014.8
20260506204004 48 75 1.0 2.0 0.00 0.18 0.18 80 1014.9
20260506203503 48 165 0.0 0.0 0.00 0.18 0.18 80 1014.7
20260506202959 48 206 0.0 0.0 0.00 0.18 0.18 79 1014.9
20260506202456 48 163 1.0 1.0 0.00 0.18 0.18 79 1014.9
20260506201952 48 135 1.0 2.0 0.00 0.18 0.18 79 1014.8
20260506201450 48 216 1.0 1.0 0.00 0.18 0.18 79 1014.8
20260506200947 48 261 0.0 1.0 0.00 0.18 0.18 79 1014.7
20260506200443 48 177 0.0 1.0 0.00 0.18 0.18 79 1014.7
20260506195939 48 60 1.0 1.0 0.00 0.18 0.18 79 1014.9
20260506195436 48 176 0.0 1.0 0.00 0.18 0.18 79 1014.8
20260506194933 48 112 3.0 5.0 0.00 0.18 0.18 79 1014.7
20260506194430 48 194 1.0 2.0 0.00 0.18 0.18 79 1014.9
20260506193927 48 36 1.0 1.0 0.00 0.18 0.18 79 1014.6
20260506193424 48 46 0.0 1.0 0.00 0.18 0.18 79 1014.4
20260506192921 48 61 1.0 1.0 0.00 0.18 0.18 79 1014.6
20260506192417 48 182 0.0 0.0 0.00 0.18 0.18 79 1014.4
20260506191915 48 147 1.0 1.0 0.00 0.18 0.18 79 1014.3
20260506191411 48 173 1.0 2.0 0.00 0.18 0.18 79 1014.4
20260506190908 49 185 1.0 1.0 0.00 0.18 0.18 79 1014.3
20260506190404 49 160 1.0 1.0 0.00 0.18 0.18 79 1014.1
20260506185901 49 18 3.0 5.0 0.00 0.18 0.18 79 1014.3
20260506185358 49 40 0.0 1.0 0.00 0.18 0.18 79 1014.2
20260506184855 49 20 2.0 2.0 0.00 0.18 0.18 79 1013.9
20260506184352 49 325 1.0 1.0 0.00 0.18 0.18 79 1014.1
20260506183850 49 162 3.0 5.0 0.00 0.18 0.18 79 1013.9
20260506183345 49 253 2.0 2.0 0.00 0.18 0.18 79 1014.1
20260506182842 49 168 0.0 1.0 0.00 0.18 0.18 79 1013.9
20260506182339 49 220 1.0 1.0 0.00 0.18 0.18 79 1014.0
20260506181837 49 322 1.0 2.0 0.00 0.18 0.18 79 1013.9
20260506181335 49 37 0.0 1.0 0.00 0.18 0.18 79 1013.9
20260506180832 50 245 0.0 1.0 0.00 0.18 0.18 79 1013.8
20260506180327 50 191 1.0 1.0 0.00 0.18 0.18 79 1013.7
20260506175824 50 9 4.0 6.0 0.00 0.18 0.18 79 1013.7
20260506175321 50 356 1.0 1.0 0.00 0.18 0.18 79 1013.5
20260506174818 50 7 2.0 3.0 0.00 0.18 0.18 79 1013.5
20260506174315 50 29 5.0 7.0 0.00 0.18 0.18 79 1013.5
20260506173813 50 60 1.0 2.0 0.00 0.18 0.18 79 1013.3
20260506173309 50 356 3.0 5.0 0.00 0.18 0.18 79 1013.4
20260506172807 50 34 1.0 1.0 0.00 0.18 0.18 79 1013.4
20260506172306 50 25 1.0 2.0 0.00 0.18 0.18 79 1013.3
20260506171801 51 98 1.0 1.0 0.00 0.18 0.18 79 1013.1
20260506171257 50 170 2.0 3.0 0.00 0.18 0.18 79 1013.3
20260506170755 51 0 1.0 1.0 0.00 0.18 0.18 79 1013.1
20260506170251 50 309 1.0 2.0 0.00 0.18 0.18 79 1013.4
20260506165750 51 159 1.0 2.0 0.00 0.18 0.18 79 1013.2
20260506165247 51 358 0.0 1.0 0.00 0.18 0.18 80 1013.3
20260506164744 51 58 1.0 1.0 0.00 0.18 0.18 80 1013.1
20260506164241 51 134 1.0 1.0 0.00 0.18 0.18 80 1013.1
20260506163738 51 150 1.0 1.0 0.00 0.18 0.18 80 1013.1
20260506163232 51 70 1.0 1.0 0.00 0.18 0.18 80 1013.0
20260506162729 50 11 2.0 3.0 0.00 0.18 0.18 81 1013.2
20260506162227 50 119 3.0 3.0 0.00 0.18 0.18 82 1013.2
20260506161724 50 186 2.0 2.0 0.00 0.18 0.18 83 1013.1
20260506161221 50 156 1.0 2.0 0.00 0.18 0.18 84 1013.1
20260506160718 50 22 3.0 3.0 0.00 0.18 0.18 85 1013.2
20260506160215 50 7 1.0 1.0 0.00 0.18 0.18 85 1013.1
20260506155713 50 145 1.0 1.0 0.00 0.18 0.18 86 1013.0
20260506155210 50 197 1.0 1.0 0.00 0.18 0.18 86 1013.1
20260506153318 51 18 1.0 2.0 0.00 0.18 0.18 86 1013.1
20260506152815 50 245 0.0 0.0 0.00 0.18 0.18 86 1013.2
20260506152312 50 337 2.0 3.0 0.00 0.18 0.18 85 1013.2
20260506151811 50 296 1.0 2.0 0.00 0.18 0.18 85 1013.1
20260506151307 50 18 1.0 2.0 0.00 0.18 0.18 85 1013.0
20260506150804 50 333 1.0 1.0 0.00 0.18 0.18 84 1013.2
20260506150304 50 12 4.0 6.0 0.00 0.18 0.18 84 1013.0
20260506145758 50 340 4.0 6.0 0.00 0.18 0.18 84 1013.0
20260506145254 50 41 4.0 5.0 0.00 0.18 0.18 83 1012.9
20260506144752 50 8 2.0 2.0 0.00 0.18 0.18 83 1013.1
20260506144248 50 13 1.0 2.0 0.00 0.18 0.18 83 1012.9
20260506143746 50 107 4.0 5.0 0.00 0.18 0.18 83 1012.9
20260506143243 50 47 3.0 3.0 0.00 0.18 0.18 83 1012.9
20260506142742 51 13 3.0 5.0 0.00 0.18 0.18 82 1012.8
20260506142239 51 9 3.0 3.0 0.00 0.18 0.18 82 1013.0
20260506141738 51 170 1.0 2.0 0.00 0.18 0.18 81 1013.0
20260506141235 51 5 3.0 5.0 0.00 0.18 0.18 81 1012.8
20260506140732 51 41 1.0 1.0 0.00 0.18 0.18 81 1012.8
20260506140229 51 44 4.0 6.0 0.00 0.18 0.18 81 1012.9
20260506135726 51 344 4.0 6.0 0.00 0.18 0.18 81 1013.0
20260506135222 51 177 3.0 5.0 0.00 0.18 0.18 82 1013.1
20260506134719 51 50 0.0 1.0 0.00 0.18 0.18 83 1012.9
20260506134215 51 204 2.0 2.0 0.00 0.18 0.18 83 1013.3
20260506133713 51 359 3.0 5.0 0.00 0.18 0.18 83 1012.9
20260506133209 51 245 1.0 1.0 0.00 0.18 0.18 84 1013.1
20260506132707 51 10 2.0 3.0 0.00 0.18 0.18 84 1012.8
20260506132203 51 347 2.0 2.0 0.00 0.18 0.18 84 1012.9
20260506131701 51 271 2.0 2.0 0.00 0.18 0.18 84 1013.0
20260506131157 51 264 1.0 2.0 0.00 0.18 0.18 85 1013.0
20260506130654 50 272 1.0 1.0 0.00 0.18 0.18 84 1012.9
20260506130151 50 21 1.0 2.0 0.00 0.18 0.18 84 1013.1
20260506125649 50 223 0.0 1.0 0.00 0.18 0.18 84 1012.8
20260506125147 50 186 0.0 1.0 0.00 0.18 0.18 84 1012.9
20260506124645 50 58 3.0 3.0 0.00 0.18 0.18 83 1013.1
20260506124142 50 16 2.0 2.0 0.00 0.18 0.18 83 1012.8
20260506123639 50 14 7.0 8.0 0.00 0.18 0.18 83 1012.9
20260506123138 51 64 3.0 3.0 0.00 0.18 0.18 83 1012.8
20260506122635 51 231 1.0 1.0 0.00 0.18 0.18 84 1012.6
20260506122132 51 2 2.0 3.0 0.00 0.18 0.18 84 1012.8
20260506121630 50 275 2.0 2.0 0.00 0.18 0.18 85 1012.7
20260506121126 50 280 2.0 2.0 0.00 0.18 0.18 85 1013.1
20260506120624 50 15 4.0 5.0 0.00 0.18 0.18 85 1012.8
20260506120121 50 120 1.0 2.0 0.00 0.18 0.18 86 1012.7
20260506115620 50 182 1.0 1.0 0.00 0.18 0.18 86 1012.7
20260506115117 50 189 1.0 1.0 0.00 0.18 0.18 86 1012.7
20260506114614 49 41 3.0 3.0 0.00 0.18 0.18 86 1012.6
20260506114112 49 19 2.0 3.0 0.00 0.18 0.18 87 1012.9
20260506113610 49 285 2.0 3.0 0.00 0.18 0.18 87 1012.9
20260506113107 49 33 5.0 8.0 0.05 0.18 0.18 87 1013.0
20260506112603 49 232 3.0 3.0 0.05 0.18 0.18 87 1012.9
20260506112102 49 356 1.0 3.0 0.00 0.17 0.17 87 1012.8
20260506111559 49 186 1.0 1.0 0.00 0.17 0.17 87 1012.8
20260506111056 49 229 1.0 2.0 0.07 0.17 0.17 87 1012.7
20260506110554 50 243 1.0 2.0 0.12 0.17 0.17 87 1012.7
20260506110051 50 221 0.0 0.0 0.12 0.16 0.16 87 1012.7
20260506105547 49 2 3.0 3.0 0.12 0.15 0.15 87 1012.9